[Iaude] MPEC Y35: 2023 YG [a=1.61,e=0.43,i=1.3,H=27.0]

mpec at marsden.cfa.harvard.edu mpec at marsden.cfa.harvard.edu
Sun Dec 17 19:24:27 EST 2023


M.P.E.C. 2023-Y35                             Issued 2023 December 18, 00:22 UT

     The Minor Planet Electronic Circulars contain information on unusual
         minor planets, routine data on comets and natural satellites,
         and occasional editorial announcements.  They are published
    on behalf of Division F of the International Astronomical Union by the
          Minor Planet Center, Smithsonian Astrophysical Observatory,
                          Cambridge, MA 02138, U.S.A.
			  
             Prepared using the Tamkin Foundation Computer Network

                              MPC at CFA.HARVARD.EDU
            URL https://www.minorplanetcenter.net/    ISSN 1523-6714

                                    2023 YG                                     


Observations:
     K23Y00G*1C2023 12 17.25988603 51 45.889+13 42 22.03         20.77GVEY035G96
     K23Y00G 1C2023 12 17.26512903 51 55.609+13 42 52.56         19.97GVEY035G96
     K23Y00G 1C2023 12 17.27035503 52 05.329+13 43 23.30         20.59GVEY035G96
     K23Y00G  C2023 12 17.31333803 53 24.013+13 47 19.75         19.8 GVEY035H01
     K23Y00G  C2023 12 17.31771903 53 32.094+13 47 44.20         20.3 GVEY035H01
     K23Y00G  C2023 12 17.32804003 53 51.194+13 48 41.85         20.4 GVEY035H01
     K23Y00G KC2023 12 17.32893003 53 53.560+13 48 56.60         20.61GVEY035I52
     K23Y00G KC2023 12 17.33118703 53 57.720+13 49 09.30         20.51GVEY035I52
     K23Y00G KC2023 12 17.33346403 54 01.930+13 49 21.90         20.55GVEY035I52
     K23Y00G  C2023 12 17.33407703 54 02.360+13 49 15.20         19.8 GVEY035H01
     K23Y00G KC2023 12 17.33574703 54 06.120+13 49 34.60         20.34GVEY035I52
     K23Y00G KC2023 12 17.39987003 56 04.376+13 55 20.86         20.39GVEY035I52
     K23Y00G KC2023 12 17.40212103 56 08.534+13 55 32.52         20.16GVEY035I52
     K23Y00G KC2023 12 17.40437203 56 12.692+13 55 44.33         20.57GVEY035I52
     K23Y00G KC2023 12 17.46354403 58 18.965+14 07 37.09         19.2 GVEY035474
     K23Y00G KC2023 12 17.46604703 58 23.359+14 07 52.97         19.2 GVEY035474
     K23Y00G KC2023 12 17.47389803 58 37.183+14 08 32.42         19.2 GVEY035474
     K23Y00G KB2023 12 17.79193 04 08 18.23 +14 28 28.0                ZEY035106
     K23Y00G KB2023 12 17.79806 04 08 28.33 +14 28 58.6                ZEY035106
     K23Y00G KB2023 12 17.80386 04 08 37.92 +14 29 26.7                ZEY035106
     K23Y00G KB2023 12 17.80956 04 08 47.27 +14 29 54.3                ZEY035106
     K23Y00G KC2023 12 17.84678 04 09 48.79 +14 33 00.9                VEY035104
     K23Y00G KC2023 12 17.84746 04 09 49.88 +14 33 04.0          20.2 GVEY035104
     K23Y00G KB2023 12 17.88682404 10 56.00 +14 36 08.6          19.9 GXEY035958
     K23Y00G KB2023 12 17.89155304 11 03.64 +14 36 30.9                XEY035958
     K23Y00G KB2023 12 17.89628304 11 11.18 +14 36 51.8          20.0 GXEY035958
     K23Y00G KC2023 12 17.91014304 11 29.49 +14 37 49.9          20.2 GVEY035L01
     K23Y00G KC2023 12 17.91162404 11 31.85 +14 37 56.1          20.2 GVEY035L01
     K23Y00G KC2023 12 17.91310504 11 34.22 +14 38 02.5          20.3 GVEY035L01
     K23Y00G KC2023 12 17.91458704 11 36.55 +14 38 10.1          20.3 GVEY035L01
     K23Y00G KC2023 12 17.91606704 11 38.90 +14 38 16.6          20.5 GVEY035L01

Observer details:
104 San Marcello Pistoiese.  Observers P. Bacci, M. Maestripieri.  Measurer P.
    Bacci.  0.60-m f/4.0 reflector + CCD.
106 Crni Vrh.  Observer H. Mikuz.  0.60-m f/3.3 reflector + CMO.
474 Mount John Observatory, Lake Tekapo.  Observers A. C. Gilmore, P. M.
    Kilmartin.  Measurer P. M. Kilmartin.  1.0-m f/7.7 Reflector + CCD.
958 Observatoire de Dax.  Observer P. Dupouy.  0.50-m f/4.5 Reflector + CMO.
G96 Mt. Lemmon Survey.  Observer A. R. Gibbs.  Measurers E. C. Beshore, D.
    Fay, J. B. Fazekas, D. C. Fuls, A. R. Gibbs, A. D. Grauer, H. Groeller, J.
    K. Hogan, R. A. Kowalski, S. M. Larson, G. J. Leonard, D. Rankin, R. L.
    Seaman, F. C. Shelly, K. W. Wierzchos.  1.5-m reflector + 10K CCD.
H01 Magdalena Ridge Observatory, Socorro.  Observers W. H. Ryan, E. V. Ryan.
    Measurer W. H. Ryan.  2.4-m f/8.9 Ritchey-Chretien + CCD.
I52 Steward Observatory, Mt. Lemmon Station.  Observer G. J. Leonard.
    Measurers E. C. Beshore, D. Fay, J. B. Fazekas, D. C. Fuls, A. R. Gibbs,
    A. D. Grauer, H. Groeller, J. K. Hogan, R. A. Kowalski, S. M. Larson, G.
    J. Leonard, D. Rankin, R. L. Seaman, F. C. Shelly, K. W. Wierzchos.  1.0-m
    prime focus + CCD.
L01 Visnjan Observatory, Tican.  Observer K. Korlevic.  1.0-m f/2.9 reflector
    + CCD.

Orbital elements:
2023 YG                                                  Earth MOID = 0.0007 AU
Epoch 2023 Sept. 13.0 TT = JDT 2460200.5                Veres                   
M 331.85509              (2000.0)            P               Q                  
n   0.48164195     Peri.  141.56255     +0.79236376     -0.60966472             
a   1.6118323      Node   256.01639     +0.55404777     +0.73402483             
e   0.4326181      Incl.    1.27829     +0.25532478     +0.29919307             
P   2.05           H   27.01          G   0.15           U   7                  
Residuals in seconds of arc
231217 G96  0.0   0.2+    231217 I52  0.1-  0.0     231217 104  0.3-  0.1-
231217 G96  0.2-  0.1-    231217 I52  0.1-  0.2-    231217 958  0.1-  0.6+
231217 G96  0.2+  0.1+    231217 I52  0.1-  0.2-    231217 958  1.2+  0.8+
231217 H01  0.2+  0.0     231217 474  0.5+  0.9-    231217 958  1.1+  0.2-
231217 H01  0.1-  0.1-    231217 474  0.3-  1.5+    231217 L01  0.2+  0.3+
231217 H01  0.1-  0.0     231217 474 (1.9-  1.2-)   231217 L01  0.3+  0.2-
231217 I52  0.0   0.1-    231217 106  0.5+  0.3+    231217 L01  0.5+  0.4-
231217 I52  0.1-  0.0     231217 106  0.1+  0.6+    231217 L01  0.2+  0.5+
231217 I52  0.1+  0.0     231217 106  0.7+  0.2+    231217 L01  0.3+  0.4+
231217 H01  0.0   0.0     231217 106  0.4+  0.1-
231217 I52  0.1-  0.1+    231217 104  0.1-  0.0

Ephemeris:
2023 YG                  a,e,i = 1.61, 0.43, 1                   q = 0.9145
Date    TT    R. A. (2000) Decl.     Delta      r    Elong.  Phase     V
2023 11 18    19 30 22.1 -17 46 46   0.1402  0.9189    56.6   116.1    27.1
...
2023 12 03    20 26 54.0 -15 58 00   0.06110 0.9521    55.0   122.0    25.8
...
2023 12 11    22 48 14.6 -08 17 11   0.02526 0.9816    82.0    96.6    22.4
...
2023 12 17    03 42 59.4 +13 16 48   0.02714 1.0081   151.5    27.8    20.4
2023 12 18    04 13 58.0 +14 46 49   0.03096 1.0128   157.9    21.4    20.5
2023 12 19    04 38 08.6 +15 45 56   0.03522 1.0176   162.6    16.8    20.7
...
2023 12 25    05 49 55.8 +17 42 33   0.06518 1.0482   172.4     7.1    21.7
...
2024 01 02    06 21 14.9 +18 11 29   0.1102  1.0926   172.4     6.9    22.9
...
2024 01 17    06 42 24.0 +18 39 58   0.2071  1.1838   163.5    13.7    24.7

M. P. C. Staff               (C) Copyright 2023 MPC           M.P.E.C. 2023-Y35





More information about the Iaude mailing list